Location: Lac de la Montagne noire
(46.1952°N, 74.2701°W)
Time: 11:51:19
(UTC-04:00)

ISS - Pass Details

Date: 27 March 2019
Orbit: 408 x 410 km, 51.6° (Epoch: 24 April)

Event Time Altitude Azimuth Distance (km) Brightness Sun altitude
Rises 19:43:41 0° 254° (WSW) 2,331 1.4 -5.1°
Reaches altitude 10° 19:45:48 10° 258° (WSW) 1,471 0.4 -5.5°
Maximum altitude 19:49:03 57° 338° (NNW) 487 -3.2 -6.0°
Drops below altitude 10° 19:52:19 10° 59° (ENE) 1,475 -1.4 -6.6°
Enters shadow 19:53:36 - 62° (ENE) 1,994 -0.8 -6.8°
